Weather at Matsu Beigan Airport

Public forecast

Using degrees Celsius for public forecast. Weather courtesy of forecast.io.

Closest aviation weather report (METAR) to Matsu Beigan Airport

Closest report is Fuzhou Changle International Airport, 25.2 nm (46.8 km) SW. Retrieved 2021/09/25 05:00 UTC (60 minutes ago):

ZSFZ 250500Z 05008MPS 9999 FEW019 BKN046 30/23 Q1015 NOSIG

Aviation forecast (TAF) for Matsu Beigan Airport

Forecast is more than 12 hours old.

Retrieved 2020/01/15 06:00 UTC (2 years ago):

TAF RCMT 150500Z 1506/1524 04018KT 3500 HZ SCT007 BKN011 BKN030 TEMPO 1506/1512 6000 NSW SCT008 BKN017 BKN035 BECMG 1518/1520 03008KT TEMPO 1521/1524 7000 NSW FEW008 BKN032